Temp
1 1 1 1 1 1 1 1 1 1 1 2 2 2 2 2 2 2 2 2 2 2 2 2 1 1 1 -0 -3 -1 -2 -3 -5 -5 -5 -5 -5 -4 -5 -5 -5 -6 -7 -6 -6 -5 -5 -6 -7 -8 -7 -7 -7 -8
0 0 1 0 0 0 0 1 1 1 1 1 1 1 1 1 2 2 2 2 2 1 2 2 2 1 1 1 -0 -0 -2 -2 -3 -5 -5 -5 -5 -5 -5 -5 -6 -5 -4 -6 -6 -4 -4 -5 -5 -6 -6 -6 -7 -7
-0 -0 -0 -0 -0 -0 0 0 0 0 0 0 1 1 1 1 1 1 1 1 1 1 1 2 2 1 1 1 0 -0 -1 -1 -1 -2 -5 -5 -4 -5 -4 -3 -4 -5 -4 -3 -3 -1 -2 -2 -3 -4 -5 -5 -5 -6
-0 -0 -0 -0 -0 -0 -0 -0 -0 0 0 0 0 0 0 0 0 1 1 1 1 0 0 1 1 1 1 0 0 -0 -0 -1 -1 -1 -2 -3 -5 -4 -3 -4 -3 -2 -3 -0 0 -0 -0 -1 -1 -2 -3 -3 -4 -4
-1 -1 -1 -1 -1 -1 -0 -0 -0 -0 -0 -0 -0 -0 -0 0 0 0 0 0 0 0 -0 0 1 1 1 0 0 -0 -1 -1 -2 -2 -1 -3 -4 -4 -2 -3 2 2 2 1 1 1 0 -0 -1 -1 -2 -2 -3 -3
-1 -1 -1 -1 -1 -1 -1 -1 -1 -1 -0 -0 -0 -0 -0 -0 -0 -0 0 0 -0 -0 -0 -1 0 1 1 -0 -1 -1 -1 -1 -3 -5 -4 -3 -5 -3 -3 -2 3 2 2 1 1 1 0 0 -0 -1 -1 -2 -2 -2
-1 -1 -1 -1 -1 -1 -1 -1 -1 -1 -1 -1 -1 -1 -1 -1 -0 -0 -1 -1 -1 -1 -1 -1 -1 0 0 -0 -0 -1 -1 -2 -3 -3 -4 -4 -6 -5 -3 1 3 2 2 2 1 1 1 1 0 -0 -1 -1 -1 -2
-1 -1 -1 -1 -1 -1 -1 -1 -1 -1 -1 -1 -1 -1 -1 -1 -1 -1 -1 -1 -1 -1 -1 -1 -2 -1 -1 -2 -2 -2 -3 -3 -2 -3 -3 -3 -5 -6 -0 3 3 3 2 2 2 1 1 0 0 0 -0 -0 -1 -1
-2 -1 -1 -1 -1 -1 -1 -1 -1 -1 -1 -1 -1 -1 -1 -1 -1 -1 -1 -1 -1 -2 -2 -2 -2 -4 -3 -3 -3 -3 -3 -4 -5 -4 -3 -5 -5 -3 3 1 1 1 2 2 2 1 1 1 1 1 0 -0 -0 -1
-2 -2 -2 -2 -2 -1 -1 -1 -1 -1 -1 -1 -1 -1 -0 -1 -1 -1 -1 -1 -1 -1 -2 -2 -3 -4 -3 -4 -6 -5 -5 -4 -6 -4 -4 -5 -2 1 -0 0 1 1 0 1 2 2 2 2 1 1 1 0 -0 -1
-3 -3 -3 -2 -2 -2 -2 -2 -2 -1 -1 -1 -1 -1 -1 -1 -1 -2 -2 -2 -2 -2 -2 -3 -3 -3 -4 -4 -5 -6 -6 -6 -6 -4 -5 -5 -2 -2 -2 -1 0 0 0 1 1 1 1 0 0 0 1 0 -0 -0
-3 -3 -3 -3 -2 -2 -2 -2 -2 -2 -2 -2 -1 -1 -1 -1 -2 -2 -3 -3 -3 -4 -3 -4 -4 -4 -4 -4 -5 -6 -5 -6 -6 -5 -4 -3 -1 -2 -0 -1 -0 -0 0 0 0 1 1 1 1 0 -0 -0 -0 -1
-3 -3 -3 -2 -2 -2 -2 -2 -2 -2 -1 -1 -1 -2 -2 -2 -2 -2 -4 -4 -4 -3 -4 -4 -5 -4 -5 -5 -5 -6 -6 -6 -6 -5 -3 -2 -2 -2 -2 -1 -1 -1 -0 -0 0 0 0 0 0 0 -0 -0 -1 -1
-3 -3 -3 -2 -2 -2 -2 -2 -2 -2 -2 -2 -2 -2 -2 -3 -3 -3 -4 -4 -4 -4 -5 -5 -5 -6 -5 -6 -5 -6 -6 -6 -6 -5 -3 -3 -2 -2 -1 -1 -1 -1 -1 -1 -1 -1 -0 -0 -0 0 -0 -1 -1 -1
-3 -3 -3 -3 -3 -3 -3 -2 -2 -2 -2 -2 -3 -3 -3 -3 -4 -4 -5 -6 -6 -6 -6 -6 -7 -8 -8 -7 -6 -6 -6 -6 -5 -3 -3 -3 -3 -2 -2 -2 -1 -1 -2 -2 -2 -1 -1 -1 -1 -1 -0 -1 -1 -1
-4 -4 -4 -3 -4 -4 -4 -4 -3 -3 -3 -3 -3 -3 -3 -4 -5 -5 -5 -6 -9 -6 -6 -8 -9 -8 -8 -7 -6 -6 -5 -4 -3 -3 -4 -4 -5 -3 -3 -3 -4 -3 -2 -2 -3 -2 -2 -2 -1 -1 -1 -1 -1 -1
-4 -4 -4 -4 -4 -4 -4 -4 -4 -4 -4 -4 -3 -4 -5 -5 -5 -6 -6 -7 -7 -7 -9 -10 -9 -8 -7 -7 -6 -5 -5 -5 -5 -5 -6 -7 -7 -7 -5 -4 -4 -5 -4 -3 -4 -4 -3 -3 -2 -2 -2 -1 -2 -2
-5 -5 -5 -5 -5 -5 -5 -5 -5 -5 -5 -4 -5 -5 -5 -6 -6 -6 -6 -7 -7 -8 -10 -11 -10 -10 -9 -7 -6 -7 -7 -7 -6 -7 -8 -8 -8 -8 -9 -7 -6 -5 -5 -5 -5 -5 -5 -4 -3 -3 -3 -3 -3 -2
-5 -5 -6 -6 -6 -6 -6 -5 -5 -6 -5 -5 -5 -6 -6 -6 -7 -7 -7 -7 -7 -8 -9 -10 -10 -9 -10 -10 -10 -10 -10 -10 -10 -10 -9 -9 -9 -9 -11 -11 -10 -9 -8 -7 -7 -7 -7 -6 -5 -4 -4 -4 -4 -3
-6 -6 -7 -6 -7 -7 -7 -7 -7 -7 -6 -6 -6 -7 -6 -7 -7 -8 -8 -8 -8 -10 -12 -12 -11 -12 -12 -12 -12 -12 -12 -12 -12 -12 -12 -11 -12 -12 -12 -12 -12 -11 -11 -10 -10 -9 -7 -7 -6 -5 -5 -5 -6 -5
-7 -7 -7 -7 -7 -7 -8 -8 -8 -7 -7 -7 -7 -7 -7 -8 -7 -8 -8 -8 -9 -10 -11 -11 -13 -14 -14 -14 -14 -14 -14 -14 -15 -15 -15 -15 -15 -14 -14 -14 -13 -12 -11 -10 -11 -10 -9 -8 -7 -6 -6 -7 -6 -6
-8 -8 -8 -8 -8 -8 -8 -7 -8 -7 -8 -7 -8 -9 -8 -8 -8 -9 -10 -9 -11 -11 -13 -14 -14 -14 -14 -14 -15 -15 -15 -15 -15 -15 -15 -15 -15 -15 -14 -14 -13 -13 -13 -12 -11 -11 -10 -9 -9 -8 -8 -7 -7 -7
-9 -9 -8 -8 -8 -8 -8 -8 -7 -8 -8 -9 -9 -9 -9 -10 -10 -12 -11 -9 -11 -12 -14 -14 -14 -15 -15 -15 -15 -15 -15 -15 -15 -16 -15 -16 -16 -16 -15 -14 -14 -14 -13 -12 -12 -12 -10 -9 -9 -9 -8 -8 -8 -8
-10 -10 -10 -10 -9 -8 -8 -9 -9 -9 -10 -9 -10 -10 -11 -11 -12 -13 -11 -10 -12 -14 -14 -14 -14 -15 -15 -15 -14 -14 -15 -15 -16 -16 -16 -16 -16 -15 -15 -14 -14 -13 -13 -13 -13 -12 -11 -11 -10 -9 -9 -9 -8 -8
-12 -11 -10 -10 -9 -9 -9 -9 -9 -10 -10 -11 -12 -12 -11 -12 -13 -14 -11 -12 -13 -14 -15 -15 -15 -15 -14 -14 -14 -13 -14 -15 -16 -16 -16 -16 -17 -16 -15 -14 -14 -13 -13 -13 -13 -12 -12 -11 -11 -11 -10 -9 -9 -8
-13 -12 -11 -10 -9 -10 -10 -11 -11 -11 -12 -12 -12 -12 -13 -15 -15 -12 -11 -12 -14 -15 -14 -13 -14 -14 -14 -14 -14 -14 -15 -15 -15 -15 -15 -15 -15 -15 -14 -14 -14 -11 -12 -13 -12 -12 -11 -11 -11 -11 -11 -10 -10 -9
-13 -11 -10 -10 -10 -11 -12 -12 -12 -14 -14 -12 -13 -13 -15 -15 -12 -11 -12 -13 -14 -14 -14 -13 -14 -15 -14 -14 -13 -13 -14 -14 -15 -15 -15 -15 -14 -14 -14 -15 -14 -13 -13 -12 -12 -12 -12 -11 -11 -11 -10 -10 -10 -9
-12 -11 -10 -10 -11 -11 -12 -13 -14 -14 -12 -12 -13 -13 -14 -12 -11 -12 -13 -14 -14 -14 -14 -14 -14 -15 -14 -13 -13 -13 -14 -13 -13 -13 -14 -13 -12 -12 -13 -13 -13 -13 -13 -12 -12 -12 -11 -11 -11 -11 -10 -10 -9 -9
-9 -9 -10 -10 -11 -11 -11 -11 -12 -11 -12 -13 -14 -14 -13 -12 -12 -13 -14 -15 -14 -14 -14 -14 -14 -14 -13 -13 -13 -13 -13 -13 -14 -13 -12 -12 -12 -12 -13 -12 -12 -13 -13 -12 -12 -12 -11 -11 -11 -11 -10 -10 -10 -10
-9 -10 -11 -11 -12 -12 -12 -12 -13 -13 -14 -14 -14 -13 -13 -12 -13 -14 -15 -15 -14 -14 -14 -14 -15 -15 -14 -14 -13 -12 -13 -13 -13 -13 -13 -13 -13 -13 -12 -12 -12 -12 -12 -12 -12 -12 -11 -11 -11 -11 -11 -10 -10 -10
-13 -13 -13 -13 -13 -11 -12 -13 -14 -14 -12 -12 -13 -13 -12 -13 -14 -14 -15 -14 -15 -15 -16 -15 -15 -15 -15 -14 -14 -13 -12 -12 -13 -13 -13 -13 -13 -13 -13 -12 -12 -12 -12 -12 -12 -12 -12 -11 -11 -11 -10 -10 -10 -10
-14 -14 -14 -13 -12 -13 -13 -13 -13 -13 -13 -13 -12 -14 -13 -14 -13 -13 -14 -15 -15 -16 -17 -16 -16 -15 -15 -15 -14 -14 -14 -13 -12 -12 -13 -13 -13 -13 -13 -13 -13 -12 -12 -13 -12 -12 -12 -12 -11 -11 -11 -11 -11 -11
-14 -14 -13 -14 -14 -12 -11 -13 -13 -13 -13 -13 -12 -13 -13 -14 -13 -14 -16 -15 -16 -16 -16 -16 -16 -16 -15 -14 -14 -14 -13 -13 -13 -12 -13 -13 -13 -13 -13 -13 -13 -12 -12 -12 -12 -13 -12 -12 -12 -11 -11 -11 -11 -11
Height
3145 3145 3145 3144 3145 3145 3144 3144 3144 3143 3143 3142 3142 3142 3143 3143 3143 3143 3143 3142 3142 3141 3139 3138 3137 3136 3134 3132 3131 3129 3127 3124 3124 3124 3124 3122 3119 3117 3111 3107 3103 3102 3101 3097 3093 3089 3083 3077 3076 3075 3073 3069 3067 3065
3146 3146 3145 3145 3145 3145 3144 3144 3143 3143 3142 3141 3141 3141 3140 3140 3140 3140 3140 3139 3138 3138 3137 3135 3133 3132 3131 3130 3129 3126 3126 3123 3121 3120 3122 3119 3116 3114 3110 3107 3101 3098 3097 3095 3093 3084 3078 3076 3074 3071 3070 3068 3067 3066
3147 3146 3146 3146 3145 3145 3144 3144 3143 3143 3142 3141 3140 3140 3139 3138 3138 3137 3136 3135 3135 3133 3132 3130 3129 3128 3127 3125 3125 3125 3122 3121 3119 3118 3117 3116 3113 3110 3108 3104 3101 3095 3092 3088 3086 3082 3078 3075 3073 3071 3070 3069 3068 3068
3147 3147 3146 3145 3144 3144 3144 3143 3143 3142 3142 3141 3140 3139 3138 3137 3135 3134 3133 3132 3131 3130 3128 3126 3124 3124 3123 3122 3120 3119 3118 3117 3116 3114 3112 3110 3110 3106 3102 3100 3096 3094 3090 3086 3084 3081 3079 3077 3075 3073 3072 3071 3070 3069
3148 3147 3146 3145 3145 3144 3143 3142 3142 3141 3141 3140 3139 3138 3136 3135 3134 3133 3131 3130 3128 3130 3125 3122 3120 3119 3117 3116 3115 3114 3112 3112 3111 3110 3108 3107 3105 3103 3097 3093 3088 3087 3086 3084 3082 3080 3079 3078 3076 3075 3073 3072 3072 3070
3147 3147 3146 3145 3145 3144 3143 3142 3142 3141 3140 3139 3138 3137 3135 3134 3132 3131 3130 3129 3126 3124 3121 3118 3116 3113 3112 3110 3109 3109 3109 3108 3106 3106 3104 3102 3102 3100 3094 3087 3083 3083 3082 3081 3081 3079 3077 3076 3076 3075 3074 3073 3072 3072
3146 3145 3145 3144 3143 3142 3141 3140 3140 3139 3137 3136 3135 3134 3133 3131 3130 3129 3128 3126 3122 3120 3118 3115 3111 3110 3108 3107 3106 3105 3104 3103 3102 3100 3098 3098 3099 3094 3087 3080 3080 3078 3077 3077 3077 3076 3076 3075 3074 3074 3073 3073 3072 3071
3144 3144 3144 3143 3142 3141 3139 3138 3137 3136 3135 3133 3132 3131 3130 3128 3127 3125 3122 3120 3118 3117 3115 3113 3111 3109 3107 3105 3103 3101 3100 3098 3096 3095 3094 3092 3094 3088 3078 3078 3076 3075 3073 3073 3073 3073 3072 3072 3071 3071 3070 3070 3070 3070
3144 3143 3142 3141 3140 3139 3138 3137 3135 3134 3132 3130 3128 3126 3124 3122 3120 3120 3118 3116 3115 3116 3113 3111 3110 3110 3105 3104 3102 3100 3098 3095 3094 3089 3089 3089 3084 3077 3077 3075 3073 3072 3070 3070 3069 3069 3068 3068 3068 3067 3067 3067 3067 3067
3144 3143 3141 3140 3139 3138 3137 3136 3133 3131 3129 3126 3125 3122 3120 3118 3116 3114 3112 3111 3109 3108 3107 3109 3108 3107 3107 3103 3101 3100 3095 3093 3089 3085 3084 3078 3074 3074 3071 3069 3067 3065 3064 3063 3062 3063 3064 3065 3065 3064 3064 3064 3064 3064
3143 3141 3140 3139 3138 3137 3135 3133 3130 3128 3126 3124 3120 3118 3116 3114 3113 3110 3110 3110 3110 3109 3109 3108 3108 3106 3104 3104 3102 3100 3096 3093 3089 3086 3081 3076 3071 3073 3069 3065 3064 3061 3058 3056 3057 3059 3059 3060 3059 3060 3060 3060 3060 3059
3141 3140 3138 3137 3136 3135 3132 3130 3128 3125 3122 3120 3117 3114 3112 3111 3111 3111 3111 3112 3111 3111 3109 3108 3107 3105 3104 3102 3099 3097 3094 3092 3087 3082 3079 3071 3070 3066 3064 3060 3058 3055 3052 3050 3049 3049 3051 3052 3053 3054 3054 3054 3055 3055
3139 3138 3137 3136 3134 3132 3130 3128 3126 3123 3121 3118 3115 3113 3111 3113 3113 3112 3112 3112 3112 3110 3108 3106 3105 3102 3100 3099 3097 3095 3091 3087 3083 3079 3073 3065 3062 3061 3059 3055 3052 3050 3047 3044 3042 3041 3039 3042 3044 3045 3046 3048 3048 3048
3136 3135 3134 3133 3132 3129 3128 3126 3124 3122 3119 3116 3114 3112 3111 3111 3112 3112 3111 3110 3108 3106 3104 3103 3101 3099 3097 3095 3095 3092 3088 3084 3078 3072 3063 3059 3057 3055 3053 3050 3048 3045 3042 3040 3037 3035 3033 3031 3033 3036 3038 3039 3040 3041
3132 3131 3130 3129 3127 3125 3124 3123 3120 3118 3117 3115 3113 3111 3110 3109 3108 3107 3106 3105 3102 3100 3098 3097 3095 3094 3092 3090 3088 3086 3082 3073 3067 3063 3063 3056 3054 3050 3047 3044 3042 3039 3036 3034 3033 3031 3028 3026 3024 3024 3026 3029 3030 3032
3128 3126 3124 3123 3122 3121 3119 3118 3116 3114 3112 3111 3108 3107 3108 3107 3104 3101 3100 3099 3096 3093 3092 3092 3089 3088 3084 3083 3080 3075 3072 3066 3066 3065 3058 3053 3047 3044 3040 3038 3036 3034 3032 3029 3026 3023 3021 3018 3015 3013 3014 3015 3019 3021
3124 3122 3119 3117 3115 3114 3113 3113 3111 3109 3107 3105 3104 3104 3102 3101 3100 3097 3095 3092 3089 3088 3088 3088 3087 3083 3081 3074 3069 3067 3065 3063 3061 3057 3054 3049 3044 3036 3032 3027 3024 3023 3023 3021 3017 3016 3012 3010 3006 3003 3001 3005 3008 3011
3117 3115 3114 3111 3108 3106 3105 3105 3104 3102 3100 3099 3096 3096 3094 3093 3091 3090 3088 3085 3084 3082 3081 3081 3078 3074 3070 3061 3061 3061 3055 3051 3047 3042 3037 3033 3027 3021 3017 3017 3015 3013 3011 3010 3007 3006 3004 3002 3000 2998 2996 2997 2998 3000
3110 3108 3107 3104 3102 3100 3097 3096 3097 3094 3094 3091 3089 3088 3087 3086 3084 3082 3080 3079 3077 3075 3072 3069 3065 3059 3059 3058 3053 3046 3041 3035 3027 3019 3013 3012 3010 3006 3003 3001 3001 2999 2999 2997 2995 2995 2995 2994 2993 2991 2989 2988 2988 2990
3103 3102 3100 3099 3097 3094 3091 3088 3088 3086 3084 3084 3081 3079 3080 3078 3076 3073 3072 3070 3068 3066 3062 3056 3053 3052 3049 3044 3040 3032 3024 3019 3012 3001 2996 2995 2994 2991 2988 2986 2984 2983 2981 2982 2981 2982 2983 2983 2983 2983 2981 2979 2979 2980
3096 3095 3093 3091 3090 3089 3085 3080 3079 3078 3076 3074 3071 3071 3070 3068 3066 3064 3063 3061 3058 3054 3050 3047 3042 3039 3035 3029 3024 3017 3010 3006 2998 2992 2983 2975 2975 2972 2968 2965 2965 2966 2965 2968 2967 2967 2967 2969 2971 2972 2971 2970 2971 2972
3088 3087 3085 3084 3081 3077 3076 3075 3072 3070 3068 3066 3065 3061 3059 3057 3054 3052 3049 3049 3045 3042 3038 3035 3033 3028 3022 3017 3010 3005 2997 2990 2984 2978 2972 2967 2960 2956 2953 2951 2949 2947 2947 2947 2951 2950 2950 2954 2956 2956 2956 2956 2958 2960
3082 3080 3076 3075 3072 3067 3065 3064 3064 3063 3061 3057 3056 3053 3051 3048 3046 3044 3040 3039 3035 3033 3030 3027 3022 3017 3010 3004 2999 2993 2988 2980 2972 2966 2961 2955 2950 2947 2943 2939 2936 2932 2930 2929 2932 2932 2933 2936 2936 2938 2939 2942 2944 2947
3072 3072 3069 3065 3061 3059 3057 3057 3057 3055 3053 3052 3050 3045 3043 3040 3038 3034 3031 3031 3027 3024 3021 3018 3013 3004 2998 2992 2985 2977 2972 2966 2957 2951 2948 2942 2937 2934 2932 2927 2923 2920 2919 2917 2916 2916 2917 2918 2919 2920 2922 2924 2930 2932
3066 3065 3062 3057 3053 3050 3049 3049 3048 3046 3044 3044 3041 3037 3034 3032 3028 3023 3020 3020 3018 3015 3011 3007 3000 2993 2985 2976 2971 2964 2958 2949 2941 2935 2932 2931 2926 2921 2918 2915 2911 2908 2908 2905 2903 2902 2902 2903 2904 2905 2906 2907 2911 2916
3056 3052 3051 3045 3043 3043 3041 3041 3039 3038 3035 3034 3031 3029 3027 3024 3020 3013 3012 3011 3008 3004 2998 2992 2984 2978 2973 2969 2959 2950 2943 2936 2928 2922 2918 2918 2914 2910 2906 2903 2899 2897 2900 2895 2892 2889 2888 2888 2889 2890 2891 2892 2897 2900
3036 3039 3038 3037 3036 3036 3032 3031 3031 3029 3026 3024 3021 3020 3018 3013 3006 3005 3003 3002 2996 2991 2987 2982 2976 2969 2963 2956 2950 2942 2933 2925 2918 2910 2905 2903 2900 2899 2897 2893 2888 2886 2885 2883 2881 2878 2875 2874 2874 2876 2876 2877 2879 2883
3018 3021 3023 3028 3027 3026 3022 3021 3017 3015 3016 3015 3013 3009 3005 3001 3000 2999 2995 2989 2983 2978 2974 2971 2967 2960 2953 2947 2939 2931 2923 2916 2909 2903 2897 2893 2892 2889 2887 2884 2881 2878 2874 2871 2867 2866 2865 2863 2862 2861 2862 2863 2865 2868
3008 3009 3014 3013 3016 3011 3009 3009 3003 3004 3008 3005 3000 2995 2991 2990 2989 2986 2981 2977 2972 2967 2963 2959 2956 2949 2943 2938 2931 2923 2915 2907 2900 2896 2892 2887 2884 2883 2878 2875 2873 2869 2866 2861 2857 2854 2852 2849 2849 2849 2850 2850 2852 2854
2996 2999 3001 2998 2997 2995 2997 2998 2995 2994 2993 2991 2987 2983 2981 2980 2981 2977 2971 2966 2962 2958 2954 2949 2944 2939 2933 2927 2921 2916 2910 2903 2896 2890 2882 2877 2874 2872 2869 2865 2863 2859 2856 2852 2849 2845 2843 2840 2839 2838 2838 2838 2839 2840
2984 2984 2983 2984 2979 2982 2983 2983 2982 2980 2979 2978 2978 2973 2970 2969 2967 2966 2961 2957 2952 2948 2943 2938 2935 2931 2924 2918 2912 2904 2899 2896 2889 2884 2878 2871 2865 2861 2858 2855 2852 2849 2847 2844 2840 2837 2835 2832 2830 2828 2827 2827 2828 2827
2967 2969 2971 2970 2972 2974 2972 2971 2970 2969 2970 2967 2966 2965 2962 2960 2954 2952 2948 2946 2942 2937 2933 2929 2924 2920 2915 2909 2904 2897 2891 2885 2880 2875 2869 2864 2859 2853 2848 2846 2843 2840 2837 2835 2832 2830 2828 2825 2823 2821 2820 2818 2818 2817
2957 2959 2961 2961 2961 2962 2964 2963 2960 2958 2957 2955 2955 2955 2952 2950 2946 2945 2938 2934 2932 2928 2923 2919 2913 2909 2904 2898 2892 2885 2879 2874 2870 2865 2861 2855 2850 2846 2841 2836 2833 2830 2827 2824 2822 2820 2819 2818 2816 2814 2812 2810 2809 2807
Wind_Speed
7 6 6 6 4 3 4 4 3 2 1 1 1 2 4 5 6 6 6 6 7 8 10 9 9 7 6 4 3 6 5 2 2 3 4 5 7 6 9 14 14 7 5 7 6 6 7 8 9 7 7 10 8 4
7 5 5 4 2 2 2 2 1 1 1 1 2 3 4 4 6 6 7 8 8 9 11 11 10 8 7 7 7 7 6 6 4 3 4 5 8 8 10 8 9 7 8 7 7 11 19 16 10 7 5 3 1 1
4 3 3 2 1 1 1 2 2 2 2 3 2 3 4 5 6 7 7 8 10 11 13 9 10 11 8 9 10 9 10 9 9 9 8 7 9 8 8 9 12 14 17 11 12 8 8 4 1 4 5 6 8 7
4 3 2 2 3 4 4 5 5 6 6 5 5 6 6 6 6 7 9 9 10 13 16 15 8 10 15 15 13 13 14 13 13 13 14 13 10 11 11 15 19 14 14 10 10 5 2 2 6 9 10 11 10 10
2 3 4 5 5 6 6 7 8 8 9 9 9 9 9 8 9 9 10 11 12 11 15 19 18 19 16 15 16 16 16 15 16 16 17 16 12 16 18 20 13 11 9 11 8 6 4 3 4 6 8 10 10 11
3 4 6 7 7 8 9 10 11 11 12 12 13 12 12 11 12 12 12 10 10 14 17 18 17 21 20 19 19 18 19 18 16 16 17 18 18 19 14 20 24 14 13 12 11 9 8 7 6 6 7 8 9 10
6 6 7 8 9 9 10 11 11 12 12 13 14 14 15 14 14 13 13 14 14 15 16 13 15 9 13 14 15 16 17 19 21 20 22 20 16 24 29 32 19 14 16 16 15 13 12 9 6 8 8 8 8 8
4 5 6 7 9 10 11 11 12 12 12 13 14 14 14 15 14 14 15 16 16 15 15 7 11 15 17 20 16 16 16 18 21 21 23 22 14 23 28 16 10 15 17 20 18 16 16 16 15 13 13 12 11 10
4 4 5 6 7 8 9 10 10 11 12 14 14 15 14 13 13 13 16 17 17 16 11 11 11 11 12 13 15 20 17 17 16 20 23 16 18 25 27 29 27 25 19 18 21 21 22 21 18 18 17 16 15 14
5 6 7 8 9 9 10 11 11 12 12 13 14 14 13 13 14 16 17 18 14 9 13 14 10 10 12 14 13 12 14 9 11 18 12 20 31 31 20 15 16 17 22 25 25 26 25 23 21 21 19 19 18 18
6 7 8 8 9 10 10 10 11 11 12 13 13 13 14 15 16 11 4 4 4 4 4 6 9 12 14 12 10 8 8 7 7 7 10 7 23 13 12 17 17 16 15 17 29 28 29 28 28 28 25 24 24 23
7 8 9 10 10 10 11 12 13 13 13 13 13 11 8 5 2 3 4 5 4 4 7 10 15 15 17 17 13 10 10 6 7 13 9 8 6 14 22 26 26 25 23 19 19 24 34 34 32 31 29 30 28 27
11 11 12 13 13 14 14 15 15 15 15 15 12 5 3 2 2 2 4 5 6 12 17 20 19 21 23 15 11 8 6 8 13 8 12 20 15 17 21 16 15 16 19 19 21 20 27 38 37 36 34 33 32 32
16 16 16 15 15 15 14 14 15 16 16 14 9 5 1 1 1 4 8 12 17 19 21 21 22 18 21 19 10 7 8 9 7 10 21 23 26 17 16 16 19 21 22 24 23 21 21 30 39 39 39 37 36 35
19 19 18 19 19 18 17 15 14 15 16 13 7 4 5 6 9 13 16 18 22 23 23 24 22 18 14 12 11 10 8 9 9 10 11 18 23 27 25 25 30 35 35 36 33 27 23 25 29 42 41 42 41 37
22 22 21 21 21 20 20 18 16 15 16 11 7 6 9 14 18 19 20 19 20 24 24 16 12 8 12 8 10 13 11 15 18 18 24 29 30 36 39 40 40 36 41 47 39 32 30 26 26 32 42 44 42 41
22 22 22 23 22 22 21 21 18 16 10 6 12 16 18 18 19 21 23 22 23 22 14 9 7 9 8 12 14 15 25 29 30 31 31 31 36 42 46 52 49 40 34 36 31 31 30 30 27 27 35 43 41 41
22 22 23 23 23 23 23 22 20 16 15 17 19 17 17 19 18 16 16 18 19 19 18 15 18 21 18 22 29 32 39 41 39 40 41 41 41 43 40 44 46 52 42 37 35 32 32 32 32 26 27 35 38 40
22 23 23 24 24 25 25 26 20 18 20 20 21 20 17 18 18 17 16 17 19 20 22 21 17 24 23 24 31 36 37 37 42 46 52 57 60 59 53 45 45 51 50 48 44 45 40 35 35 31 27 31 35 37
24 23 24 24 25 26 25 21 27 25 20 20 26 19 18 21 20 19 18 20 20 19 19 22 25 24 29 34 38 46 51 54 59 65 67 68 64 60 57 53 47 41 44 46 46 48 46 43 40 37 30 28 28 32
27 26 26 26 24 25 27 25 23 18 27 24 17 21 24 23 23 23 22 22 20 21 24 24 28 29 32 37 39 41 44 43 46 48 53 57 54 55 55 55 57 59 60 51 45 37 43 36 33 40 32 27 26 27
29 29 29 29 30 33 32 31 29 27 21 22 23 26 31 32 28 26 25 22 23 22 20 21 27 32 37 39 41 40 45 43 42 44 46 47 50 47 46 48 48 46 45 48 53 51 46 45 32 36 37 35 28 28
31 31 33 33 34 34 28 18 13 12 20 24 26 32 30 30 28 23 23 30 17 23 21 25 29 33 38 40 42 43 43 44 46 46 49 49 46 41 43 49 47 46 46 46 46 47 50 53 55 47 45 42 34 30
33 34 34 26 18 15 19 18 20 22 21 22 28 33 29 27 27 25 31 26 19 24 22 27 33 40 44 47 54 55 54 49 50 45 43 42 47 49 45 46 42 41 42 44 41 44 48 49 44 53 55 51 46 39
34 25 14 22 25 19 21 21 17 20 25 25 28 30 32 23 25 24 32 16 25 23 29 34 36 42 48 51 51 52 50 47 46 43 38 37 40 41 41 42 41 38 35 37 39 39 41 44 49 48 42 52 54 51
25 13 14 23 22 21 19 19 25 25 25 30 28 24 26 19 20 22 27 22 29 34 37 39 45 45 42 44 46 49 48 41 40 42 44 41 38 39 42 40 36 29 28 31 37 41 39 40 42 44 47 47 46 54
42 38 35 39 40 40 38 36 30 25 25 33 31 30 21 14 16 23 22 36 37 35 33 36 39 38 44 48 49 54 49 43 41 40 41 42 38 36 38 40 41 36 30 29 36 38 39 41 42 42 44 47 47 46
54 50 42 36 34 33 36 35 36 33 34 35 31 25 17 19 24 34 37 36 35 37 36 35 37 35 39 45 48 50 43 38 41 37 31 21 22 29 35 39 38 41 39 33 28 25 26 32 39 44 44 45 44 45
42 40 31 31 28 35 38 39 43 41 40 35 35 38 42 39 36 36 39 39 38 37 36 36 35 35 36 38 40 41 39 35 32 33 35 34 33 34 35 36 37 40 35 32 29 33 30 27 30 36 38 40 41 40
50 47 44 46 46 47 45 42 42 39 34 33 34 36 38 35 32 36 39 37 35 34 31 35 34 36 36 38 39 36 35 37 38 38 37 35 36 37 38 40 38 39 34 32 31 30 24 22 27 31 35 36 36 37
51 51 51 47 48 37 32 30 30 32 30 31 30 35 36 35 37 34 30 32 29 31 35 37 37 38 39 39 42 39 36 36 40 38 39 37 37 35 32 33 34 33 33 32 33 35 28 23 20 24 28 30 33 35
44 41 37 36 30 26 26 28 29 29 28 32 33 34 34 35 35 33 30 27 29 33 35 37 38 36 40 39 39 39 41 42 42 40 37 37 38 39 35 32 32 33 34 32 33 34 32 27 23 21 24 27 29 32
39 35 32 30 30 27 25 25 29 33 35 36 35 34 28 23 27 27 29 30 33 34 36 38 40 40 43 41 42 42 43 44 42 38 36 37 36 37 38 37 33 34 35 36 35 34 33 32 29 26 26 24 27 28
Wind_Direction
119 116 113 108 111 102 88 82 77 73 81 190 225 237 250 260 267 273 281 285 292 297 308 308 311 309 315 318 284 320 341 334 230 240 259 270 271 283 285 295 296 269 263 287 288 266 268 295 302 223 258 287 311 329
133 133 133 136 136 119 108 99 81 71 51 311 291 279 265 257 264 272 273 276 279 281 286 294 294 292 299 300 291 298 277 296 262 225 249 267 277 280 298 294 290 284 288 260 252 273 296 302 296 276 270 262 234 96
150 148 156 168 194 227 255 288 305 320 330 327 304 277 272 280 287 285 284 283 285 287 289 275 282 275 277 288 283 279 282 276 281 275 260 256 264 280 277 271 279 296 315 283 318 338 326 335 106 129 133 134 127 125
188 206 232 246 254 263 278 291 295 297 299 306 311 312 313 310 299 288 288 289 290 292 292 294 281 284 288 286 274 266 275 278 277 281 277 273 274 281 273 281 285 275 276 301 305 313 308 147 132 133 136 136 134 131
288 293 291 290 288 285 283 284 289 293 299 301 304 305 306 310 312 310 306 302 300 296 294 297 296 295 289 284 277 268 264 270 276 275 277 277 280 281 294 292 297 280 293 277 282 278 267 227 184 162 153 151 150 144
332 326 322 323 321 316 311 308 305 305 306 305 306 306 305 304 307 309 312 308 310 308 306 310 300 300 294 286 277 274 271 268 263 268 279 277 268 279 281 279 305 293 270 265 267 259 252 246 229 206 187 173 165 159
304 310 309 308 308 309 310 312 314 316 313 311 307 305 306 305 305 305 304 302 299 302 306 309 302 308 309 305 296 284 279 273 271 267 268 272 262 285 279 286 316 290 260 252 250 252 250 245 240 228 215 204 194 187
357 347 326 319 312 308 310 311 312 311 309 307 308 310 313 313 309 303 300 297 296 297 301 282 277 297 310 307 303 307 296 287 280 276 280 277 263 262 277 323 336 311 270 252 248 244 237 233 234 227 225 224 221 218
28 7 354 346 341 344 347 346 341 335 329 319 312 309 305 303 305 302 300 296 290 282 277 272 286 297 323 309 310 307 304 286 292 269 275 267 256 253 310 307 298 297 287 269 253 245 241 243 242 235 232 230 230 231
340 335 329 324 325 325 327 328 331 328 325 325 322 319 321 318 305 298 296 294 289 287 259 277 295 289 319 319 317 315 300 286 275 296 295 256 275 309 319 307 299 294 266 259 249 242 247 253 250 246 245 239 235 236
347 342 334 327 329 332 336 336 333 330 332 333 331 326 314 309 303 305 307 342 325 321 316 322 334 326 324 320 314 290 286 280 274 272 275 275 303 342 305 310 315 316 298 287 253 250 246 248 253 248 246 242 241 242
349 349 349 351 352 348 343 344 346 348 347 347 339 332 335 341 360 43 10 353 336 316 319 324 322 323 324 317 310 295 279 256 255 270 278 274 303 284 294 304 304 300 296 288 272 258 248 246 246 249 247 245 246 247
322 325 330 335 340 343 344 344 343 341 340 345 350 355 347 56 68 43 16 328 313 308 307 311 313 315 321 318 303 287 271 250 276 256 265 274 266 296 308 320 325 320 325 305 278 271 251 244 244 244 246 246 246 245
306 308 312 316 318 320 326 333 335 334 335 342 336 321 229 119 241 290 284 285 289 288 289 296 301 300 303 307 285 272 273 274 249 244 263 279 286 281 292 306 322 328 332 334 325 293 277 248 245 246 246 248 250 250
300 303 308 309 308 309 312 316 321 325 325 327 308 267 236 254 279 282 283 284 278 284 283 289 291 287 278 268 260 258 253 240 237 254 284 278 286 285 289 301 294 300 309 311 309 310 300 277 261 248 247 247 250 251
300 304 304 302 303 304 306 308 311 313 312 301 249 238 276 276 279 282 284 284 294 293 296 297 292 263 259 244 231 233 243 262 284 294 292 287 286 283 285 291 296 299 289 291 296 291 293 294 284 266 244 243 245 250
300 300 299 301 302 301 301 301 305 307 303 263 283 283 283 281 283 289 293 291 291 297 300 289 264 263 271 250 248 266 277 288 289 286 286 295 301 294 280 277 283 289 282 279 285 289 287 290 293 281 248 240 242 246
297 299 300 301 302 303 304 305 307 300 299 299 296 295 286 288 292 292 292 292 296 294 288 268 263 255 251 265 275 281 279 274 267 269 274 270 268 275 282 274 279 278 276 277 281 289 294 291 286 282 264 249 249 246
296 299 302 304 306 307 309 306 305 298 299 299 302 294 289 293 295 295 295 302 304 307 299 283 264 275 281 284 287 284 279 275 278 276 269 267 267 271 276 280 276 272 279 282 279 286 286 287 284 274 269 259 253 251
297 301 303 306 308 309 309 296 304 303 300 295 298 287 293 299 302 301 306 312 317 308 281 273 285 287 287 286 287 284 284 284 280 278 277 274 276 279 281 284 282 279 272 271 277 276 276 274 276 273 264 257 253 251
300 302 302 303 302 300 296 297 294 294 296 295 287 299 305 303 301 301 307 318 318 312 305 295 286 290 292 295 301 312 310 301 293 287 285 286 284 280 280 283 281 274 270 269 278 271 261 253 253 260 255 256 251 249
296 298 299 300 300 298 291 289 285 289 285 283 295 305 312 312 310 315 315 326 318 329 317 299 297 299 303 302 301 301 306 306 300 294 291 292 292 291 288 287 284 280 270 266 263 263 262 251 246 240 237 239 242 247
294 295 297 299 300 294 287 286 278 270 284 290 299 308 310 307 305 308 304 322 323 328 310 304 302 307 308 306 304 304 304 302 298 296 296 292 292 289 295 298 294 285 281 279 270 268 265 262 252 241 237 238 238 248
292 295 300 297 286 269 279 282 281 284 279 284 298 302 303 303 305 298 304 331 327 326 314 311 309 308 309 312 314 317 314 305 293 287 295 288 284 289 289 291 287 284 283 282 276 270 270 267 270 261 250 245 236 243
289 294 274 275 277 271 274 281 276 280 283 293 296 300 303 303 297 294 311 328 329 313 317 315 308 307 311 315 317 324 327 311 302 292 289 290 289 289 289 284 285 277 279 282 282 277 272 270 269 267 265 258 243 241
276 263 248 266 275 271 274 273 288 290 289 293 293 300 303 286 281 288 311 316 326 318 316 313 312 313 314 316 319 324 325 321 305 289 285 287 287 282 287 295 299 286 278 292 289 278 273 268 266 265 265 267 261 251
264 258 263 270 273 280 279 281 279 272 278 286 293 295 283 260 276 299 304 319 315 309 312 308 311 308 310 308 314 321 322 323 316 300 290 287 290 277 285 291 299 293 288 292 295 283 269 265 263 264 264 266 268 265
264 266 268 276 271 271 271 272 267 264 279 289 287 263 261 264 282 300 312 316 311 309 310 308 308 316 317 316 316 320 317 318 321 318 308 302 290 282 284 290 294 294 295 289 283 288 288 276 267 262 259 260 264 262
265 274 272 266 266 262 267 268 265 277 292 293 280 276 280 290 299 313 318 314 310 307 306 308 310 317 315 312 322 328 328 320 310 306 302 298 298 298 300 296 298 301 296 285 297 299 303 286 273 268 265 262 261 261
269 272 273 277 273 272 279 279 280 283 283 276 274 279 282 293 310 311 310 306 302 304 307 315 321 323 317 314 313 312 320 323 324 326 315 299 300 292 292 294 298 300 296 284 280 297 298 299 282 275 268 265 264 263
270 273 275 275 277 284 278 274 271 268 271 278 280 280 289 304 307 308 298 297 305 314 318 316 318 318 319 319 318 313 309 317 319 317 321 322 314 313 309 300 296 295 298 291 289 290 299 302 301 288 273 269 267 267
270 267 272 275 278 274 269 265 264 270 278 279 285 288 295 300 300 304 308 309 318 320 314 310 311 317 323 322 322 318 314 311 313 316 317 315 319 323 313 301 296 292 292 295 287 287 288 291 293 297 295 283 280 276
262 266 267 262 260 265 270 264 273 280 283 287 293 297 295 295 301 320 308 310 316 312 312 310 308 312 319 317 322 321 317 314 313 313 310 311 313 315 316 318 306 295 291 293 292 285 284 282 282 285 287 301 304 294